Tracking 18840 objects as of 19-November-2017
HD Live streaming from Space Station
objects crossing your sky now

FENGYUN 1C DEB

Track FENGYUN 1C DEB now!
10-day predictions


NORAD ID: 31539
Int'l Code: 1999-025BYE
Perigee: 575.2 km
Apogee: 604.5 km
Inclination: 99.1 °
Period: 96.3 minutes
Semi major axis: 6960 km
RCS: 0.0051 m2 (small)
Launch date: May 10, 1999
Source: People's Republic of China (PRC)
Launch site: Taiyaun Space Center, China (TSC)

Note: This is SATELLITE DEBRIS
aabbcc
Your satellite tracking list
Your tracking list is empty




NASA's NSSDC Master Catalog

Two Line Element Set (TLE):
1 31539U 99025BYE 17322.36100271 +.00018494 +00000-0 +16916-2 0  9992
2 31539 099.0525 273.5579 0021022 115.0721 245.2680 14.94891439553951
Source of the keplerian elements: AFSPC